KC0SIQ-13 Weather Reports


time (UTC)temp
F
wind
direction
speed
knots
gust
knots
rain 1hr
in
rain 24hr
in
rain mn
in
humidity
%
barometer
mb
20260506190135 36 237 1.7 1.7 0.19 0.46 0.46 79 1018.3
20260506185633 36 200 1.7 1.7 0.14 0.44 0.44 81 1018.4
20260506185128 36 348 0.9 1.7 0.19 0.43 0.43 86 1018.2
20260506184626 35 252 0.9 0.9 0.17 0.42 0.42 82 1018.5
20260506184123 35 255 0.9 0.9 0.17 0.40 0.40 79 1018.7
20260506183620 38 255 0.9 0.9 0.19 0.39 0.39 83 1018.4
20260506183116 38 290 0.0 0.0 0.19 0.37 0.37 90 1018.4
20260506182614 38 290 0.0 0.9 0.17 0.36 0.36 90 1018.4
20260506182110 37 298 0.9 0.9 0.17 0.34 0.34 89 1018.8
20260506181608 37 29 0.0 0.9 0.19 0.33 0.33 89 1018.5
20260506181105 36 267 0.0 0.0 0.14 0.31 0.31 87 1018.5
20260506180602 36 268 0.9 0.9 0.12 0.30 0.30 85 1018.5
20260506180058 36 259 0.0 0.0 0.12 0.29 0.29 90 1018.7
20260506175554 37 270 0.9 0.9 0.12 0.28 0.28 89 1018.7
20260506175051 36 271 0.0 0.0 0.12 0.27 0.27 90 1018.5
20260506174550 36 258 0.0 0.0 0.19 0.26 0.26 86 1018.5
20260506174045 38 265 0.0 0.9 0.17 0.25 0.25 91 1018.7
20260506173544 36 230 0.9 0.9 0.12 0.23 0.23 89 1018.9
20260506173040 35 286 0.0 0.0 0.12 0.22 0.22 88 1018.5
20260506172538 36 256 0.0 0.0 0.12 0.21 0.21 89 1018.7
20260506172033 35 279 0.0 0.9 0.14 0.20 0.20 90 1018.5
20260506171531 35 229 0.0 0.9 0.12 0.19 0.19 88 1018.7
20260506171028 36 48 1.7 1.7 0.12 0.18 0.18 88 1018.8
20260506170526 36 226 0.0 0.0 0.07 0.17 0.17 91 1018.8
20260506170024 37 213 0.0 0.0 0.05 0.16 0.16 93 1018.7
20260506165522 35 246 0.0 0.0 0.12 0.16 0.16 93 1018.8
20260506165018 36 246 0.0 0.0 0.07 0.15 0.15 94 1018.9
20260506164514 36 147 0.0 0.0 0.05 0.14 0.14 94 1019.0
20260506164012 37 280 0.0 0.0 0.12 0.14 0.14 95 1018.5
20260506163508 37 270 0.0 0.0 0.07 0.13 0.13 95 1018.2
20260506163004 36 297 0.0 0.0 0.05 0.12 0.12 95 1018.4
20260506162500 37 296 0.0 0.0 0.12 0.12 0.12 95 1018.2
20260506161957 36 295 0.0 0.0 0.07 0.11 0.11 96 1018.3
20260506161455 36 293 0.0 0.0 0.05 0.10 0.10 95 1018.3
20260506160952 35 289 0.0 0.0 0.05 0.10 0.10 95 1018.4
20260506160449 36 287 0.0 0.0 0.07 0.09 0.09 96 1018.4
20260506155946 35 284 0.0 0.0 0.07 0.09 0.09 96 1018.3
20260506155444 35 284 0.0 0.0 0.05 0.08 0.08 96 1018.0
20260506153611 35 282 0.0 0.0 0.07 0.07 0.07 99 1018.2
20260506153108 34 281 0.0 0.0 0.07 0.06 0.06 99 1018.0
20260506152605 32 279 0.0 0.0 0.07 0.06 0.06 99 1018.1
20260506152103 33 281 0.0 0.0 0.00 0.05 0.05 99 1018.2
20260506151601 33 283 0.0 0.0 0.05 0.05 0.05 99 1018.0
20260506151058 33 285 0.0 0.0 0.05 0.05 0.05 99 1018.1
20260506150554 32 288 0.0 0.0 0.00 0.04 0.04 99 1018.2
20260506150051 33 290 0.0 0.0 0.00 0.04 0.04 99 1018.1
20260506145548 32 291 0.0 0.0 0.00 0.04 0.04 99 1017.7
20260506145045 32 291 0.0 0.0 0.07 0.04 0.04 99 1017.8
20260506144542 32 292 0.0 0.0 0.07 0.04 0.04 99 1018.2
20260506144039 32 292 0.0 0.0 0.00 0.03 0.03 99 1017.8
20260506143537 32 293 0.0 0.0 0.00 0.03 0.03 99 1018.0
20260506143035 32 293 0.0 0.0 0.00 0.03 0.03 99 1018.1
20260506142532 32 293 0.0 0.0 0.00 0.03 0.03 99 1018.0
20260506142031 32 293 0.0 0.0 0.00 0.03 0.03 99 1017.8
20260506141528 32 293 0.0 0.0 0.00 0.03 0.03 99 1017.7
20260506141026 32 293 0.0 0.0 0.00 0.03 0.03 99 1017.8
20260506140523 32 293 0.0 0.0 0.05 0.03 0.03 99 1017.7
20260506140020 32 293 0.0 0.0 0.05 0.03 0.03 99 1017.5
20260506135517 32 294 0.0 0.0 0.00 0.02 0.02 99 1017.8
20260506135013 32 294 0.0 0.0 0.00 0.02 0.02 99 1017.6
20260506134510 32 294 0.0 0.0 0.00 0.02 0.02 99 1017.5
20260506134006 31 294 0.0 0.0 0.00 0.02 0.02 99 1017.5
20260506133503 31 294 0.0 0.0 0.00 0.02 0.02 99 1017.5
20260506133000 31 294 0.0 0.0 0.00 0.02 0.02 99 1017.3
20260506132457 31 294 0.0 0.0 0.00 0.02 0.02 99 1017.3
20260506131954 31 294 0.0 0.0 0.00 0.02 0.02 99 1017.3
20260506131451 31 294 0.0 0.0 0.00 0.02 0.02 99 1017.1
20260506130948 31 294 0.0 0.0 0.00 0.02 0.02 99 1017.0
20260506130444 31 294 0.0 0.0 0.00 0.02 0.02 99 1016.8
20260506125942 31 294 0.0 0.0 0.00 0.02 0.02 99 1017.3
20260506125440 31 294 0.0 0.0 0.00 0.02 0.02 99 1016.9
20260506124938 31 294 0.0 0.0 0.00 0.02 0.02 99 1016.8
20260506124435 31 294 0.0 0.0 0.00 0.02 0.02 99 1016.8
20260506123933 31 294 0.0 0.0 0.00 0.02 0.02 99 1016.7
20260506123431 31 294 0.0 0.0 0.00 0.02 0.02 99 1016.4
20260506122928 31 294 0.0 0.0 0.00 0.02 0.02 99 1016.3
20260506122425 31 294 0.0 0.0 0.00 0.02 0.02 99 1016.4
20260506121924 31 294 0.0 0.0 0.00 0.02 0.02 99 1016.1
20260506121420 31 294 0.0 0.0 0.00 0.02 0.02 99 1016.3
20260506120917 31 294 0.0 0.0 0.00 0.02 0.02 99 1016.2
20260506120414 31 294 0.0 0.0 0.00 0.02 0.02 99 1016.1
20260506115912 31 294 0.0 0.0 0.00 0.02 0.02 99 1016.2
20260506115410 31 294 0.0 0.0 0.00 0.02 0.02 99 1016.1
20260506114908 31 294 0.0 0.0 0.00 0.02 0.02 99 1016.0
20260506114405 31 294 0.0 0.0 0.00 0.02 0.02 99 1016.1
20260506113904 31 294 0.0 0.0 0.00 0.02 0.02 99 1015.9
20260506113401 31 294 0.0 0.0 0.00 0.02 0.02 99 1015.9
20260506112857 31 294 0.0 0.0 0.00 0.02 0.02 99 1015.7
20260506112355 31 294 0.0 0.0 0.00 0.02 0.02 99 1015.6
20260506111852 31 294 0.0 0.0 0.00 0.02 0.02 99 1015.3
20260506111350 31 294 0.0 0.0 0.00 0.02 0.02 99 1015.4
20260506110847 32 294 0.0 0.0 0.00 0.02 0.02 99 1015.4
20260506110344 32 294 0.0 0.0 0.00 0.02 0.02 99 1015.4
20260506105841 32 294 0.0 0.0 0.00 0.02 0.02 99 1015.3
20260506105337 32 294 0.0 0.0 0.00 0.02 0.02 99 1015.2
20260506104835 32 294 0.0 0.0 0.00 0.02 0.02 99 1015.4
20260506104332 32 294 0.0 0.0 0.00 0.02 0.02 99 1015.2
20260506103830 32 294 0.0 0.0 0.00 0.02 0.02 99 1015.0
20260506103327 32 294 0.0 0.0 0.00 0.02 0.02 99 1015.4
20260506102825 32 294 0.0 0.0 0.00 0.02 0.02 99 1015.4
20260506102322 32 294 0.0 0.0 0.00 0.02 0.02 99 1015.4
20260506101820 32 293 0.0 0.0 0.00 0.02 0.02 99 1015.4
20260506101315 32 293 0.0 0.0 0.00 0.02 0.02 99 1015.4
20260506100814 32 293 0.0 0.0 0.00 0.02 0.02 99 1015.2
20260506100312 32 293 0.0 0.0 0.00 0.02 0.02 99 1015.2
20260506095810 32 293 0.0 0.0 0.00 0.02 0.02 99 1015.0
20260506095306 32 293 0.0 0.0 0.00 0.02 0.02 99 1015.0
20260506094803 32 293 0.0 0.0 0.00 0.02 0.02 99 1015.4
20260506094302 32 293 0.0 0.0 0.00 0.02 0.02 99 1015.7
20260506093759 32 293 0.0 0.0 0.00 0.02 0.02 99 1015.2
20260506093256 32 293 0.0 0.0 0.00 0.02 0.02 99 1015.3
20260506092755 32 293 0.0 0.0 0.00 0.02 0.02 99 1015.0
20260506092252 32 293 0.0 0.0 0.00 0.02 0.02 99 1015.2
20260506091749 32 293 0.0 0.0 0.00 0.02 0.02 99 1015.3
20260506091246 32 293 0.0 0.0 0.00 0.02 0.02 99 1015.0
20260506090744 32 293 0.0 0.0 0.07 0.02 0.02 99 1015.2
20260506090241 32 293 0.0 0.0 0.07 0.02 0.02 99 1015.2
20260506085738 32 293 0.0 0.0 0.00 0.01 0.01 99 1015.4
20260506085234 32 293 0.0 0.0 0.00 0.01 0.01 99 1015.2
20260506084731 32 293 0.0 0.0 0.00 0.01 0.01 99 1015.4
20260506084227 32 293 0.0 0.0 0.00 0.01 0.01 99 1014.9
20260506083724 32 293 0.0 0.0 0.00 0.01 0.01 99 1015.0
20260506083222 32 293 0.0 0.0 0.00 0.01 0.01 99 1015.4
20260506082719 32 292 0.0 0.0 0.00 0.01 0.01 99 1015.5
20260506082214 32 292 0.0 0.0 0.00 0.01 0.01 99 1015.3
20260506081712 32 292 0.0 0.0 0.00 0.01 0.01 99 1015.4
20260506081210 32 292 0.0 0.0 0.00 0.01 0.01 99 1015.2
20260506080707 32 292 0.0 0.0 0.00 0.01 0.01 99 1015.3
20260506080204 32 292 0.0 0.0 0.00 0.01 0.01 99 1015.2
20260506073148 32 293 0.0 0.0 0.05 0.01 0.01 99 1015.3
20260506072644 32 293 0.0 0.0 0.05 0.01 0.01 99 1015.4
20260506072142 32 293 0.0 0.0 0.00 0.00 0.00 99 1015.4
20260506071640 32 293 0.0 0.0 0.00 0.00 0.00 99 1015.4
20260506071137 32 293 0.0 0.0 0.00 0.00 0.00 99 1015.3
20260506070634 32 293 0.0 0.0 0.00 0.00 0.00 99 1015.3
20260506070131 32 293 0.0 0.0 0.00 0.00 0.00 99 1015.6
20260506062109 32 293 0.0 0.0 0.00 0.00 0.00 99 1015.4
20260506061604 32 293 0.0 0.0 0.00 0.00 0.00 99 1015.2
20260506061102 32 293 0.0 0.0 0.00 0.00 0.00 99 1015.4
20260506060600 32 292 0.0 0.0 0.00 0.00 0.00 99 1015.2
20260506051029 32 279 0.0 0.0 0.00 1.02 1.02 99 1014.4
20260506050527 32 277 0.0 0.0 0.00 1.02 1.02 99 1014.8
20260506045017 33 276 0.0 0.0 0.00 1.02 1.02 99 1014.4
20260506044515 33 276 0.0 0.0 0.00 1.02 1.02 99 1014.7
20260506044012 33 271 0.0 0.0 0.00 1.02 1.02 99 1014.4
20260506043509 33 271 0.0 0.0 0.00 1.02 1.02 99 1014.5
20260506043007 33 271 0.0 0.0 0.00 1.02 1.02 99 1014.4
20260506042506 33 269 0.0 0.0 0.00 1.02 1.02 99 1014.4
20260506042003 33 268 0.0 0.0 0.00 1.02 1.02 99 1014.6
20260506041502 33 268 0.0 0.0 0.00 1.02 1.02 99 1014.5
20260506040958 33 268 0.0 0.0 0.00 1.02 1.02 99 1014.5
20260506040456 33 272 0.0 0.0 0.00 1.02 1.02 99 1014.1
20260506035952 33 272 0.0 0.0 0.00 1.02 1.02 99 1014.1
20260506035449 33 272 0.0 0.0 0.00 1.02 1.02 99 1014.1
20260506034945 33 272 0.0 0.0 0.00 1.02 1.02 99 1014.1
20260506034443 33 272 0.0 0.0 0.00 1.02 1.02 99 1014.1
20260506033940 33 272 0.0 0.0 0.00 1.02 1.02 99 1014.0
20260506033438 33 273 0.0 0.0 0.00 1.02 1.02 99 1013.9
20260506032934 33 272 0.0 0.0 0.00 1.02 1.02 99 1013.9
20260506032431 33 272 0.0 0.0 0.00 1.02 1.02 99 1013.8
20260506031927 33 272 0.0 0.0 0.00 1.02 1.02 99 1013.9
20260506031425 33 272 0.0 0.0 0.07 1.02 1.02 99 1013.8
20260506030923 33 272 0.0 0.0 0.07 1.02 1.02 99 1013.9
20260506030421 33 272 0.0 0.0 0.00 1.01 1.01 99 1013.5
20260506025917 33 282 0.0 0.0 0.00 1.01 1.01 99 1013.7
20260506025414 33 282 0.0 0.0 0.00 1.01 1.01 99 1013.7
20260506024911 33 282 0.0 0.0 0.00 1.01 1.01 99 1013.3
20260506024408 33 282 0.0 0.0 0.00 1.01 1.01 99 1013.5
20260506023904 33 271 0.0 0.0 0.00 1.01 1.01 99 1013.2
20260506023401 33 279 0.0 0.0 0.00 1.01 1.01 99 1013.0
20260506022857 33 276 0.0 0.0 0.00 1.01 1.01 99 1013.1
20260506022355 33 284 0.0 0.0 0.00 1.01 1.01 99 1013.1
20260506021853 33 278 0.0 0.0 0.00 1.01 1.01 99 1013.1
20260506021350 33 272 0.0 0.0 0.00 1.01 1.01 99 1012.8
20260506020846 33 273 0.0 0.0 0.00 1.01 1.01 99 1012.6
20260506020345 33 281 0.0 0.0 0.00 1.01 1.01 99 1012.6
20260506015841 33 275 0.0 0.0 0.00 1.01 1.01 99 1012.4
20260506015339 33 267 0.0 0.0 0.00 1.01 1.01 99 1012.5
20260506014835 33 279 0.0 0.0 0.00 1.01 1.01 99 1012.6
20260506014332 33 279 0.0 0.0 0.00 1.01 1.01 99 1012.1
20260506013829 33 276 0.0 0.0 0.00 1.01 1.01 99 1012.3
20260506013326 33 280 0.0 0.0 0.00 1.01 1.01 99 1012.5
20260506012823 33 273 0.0 0.0 0.00 1.01 1.01 99 1012.5
20260506012320 33 269 0.0 0.0 0.00 1.01 1.01 99 1011.9
20260506011817 33 284 0.0 0.0 0.00 1.01 1.01 99 1012.1
20260506011314 33 281 0.0 0.0 0.00 1.01 1.01 99 1011.9
20260506010811 33 277 0.0 0.0 0.00 1.01 1.01 99 1011.9
20260506010309 33 279 0.0 0.0 0.00 1.01 1.01 99 1012.0
20260506005806 33 278 0.0 0.0 0.00 1.01 1.01 99 1012.0
20260506005305 33 282 0.0 0.0 0.00 1.01 1.01 99 1012.1
20260506004758 33 281 0.0 0.0 0.00 1.01 1.01 99 1012.3
20260506004257 33 276 0.0 0.0 0.00 1.01 1.01 99 1012.1
20260506003752 33 270 0.0 0.0 0.00 1.01 1.01 99 1011.9
20260506003249 33 269 0.0 0.0 0.00 1.01 1.01 99 1012.0
20260506002745 33 275 0.0 0.0 0.00 1.01 1.01 99 1012.1
20260506002241 33 284 0.0 0.0 0.00 1.01 1.01 99 1011.9
20260506001737 33 276 0.0 0.0 0.00 1.01 1.01 99 1012.0
20260506001235 33 284 0.0 0.0 0.00 1.01 1.01 99 1012.1
20260506000731 33 279 0.0 0.0 0.00 1.01 1.01 99 1012.1
20260506000229 33 268 0.0 0.0 0.00 1.01 1.01 99 1011.8
20260505235726 33 259 0.0 0.0 0.00 1.01 1.01 99 1011.8
20260505235224 33 270 0.0 0.0 0.00 1.01 1.01 99 1011.8
20260505234720 33 273 0.0 0.0 0.00 1.01 1.01 99 1011.8
20260505234218 33 275 0.0 0.0 0.00 1.01 1.01 99 1011.8
20260505233714 33 277 0.0 0.0 0.00 1.01 1.01 99 1011.7
20260505233212 33 277 0.0 0.0 0.00 1.01 1.01 99 1011.9
20260505232709 33 277 0.0 0.0 0.00 1.01 1.01 99 1011.9
20260505232207 33 274 0.0 0.0 0.00 1.01 1.01 99 1011.8
20260505231703 33 273 0.0 0.0 0.00 1.01 1.01 99 1012.0
20260505231203 33 268 0.0 0.0 0.00 1.01 1.01 99 1011.9
20260505230700 33 269 0.0 0.0 0.00 1.01 1.01 99 1011.9
20260505230156 33 282 0.0 0.0 0.00 1.01 1.01 99 1011.8
20260505225652 33 274 0.0 0.0 0.00 1.01 1.01 99 1011.8
20260505225149 33 278 0.0 0.0 0.00 1.01 1.01 99 1011.9
20260505224645 33 252 0.0 0.0 0.00 1.01 1.01 99 1011.8
20260505224143 33 274 0.0 0.0 0.00 1.01 1.01 99 1011.9
20260505223641 33 250 0.0 0.9 0.00 1.01 1.01 99 1011.8
20260505223136 33 287 0.0 0.0 0.00 1.01 1.01 99 1011.9
20260505222632 33 64 0.0 0.0 0.05 1.01 1.01 99 1011.7
20260505222129 33 279 0.0 0.0 0.05 1.01 1.01 99 1011.7
20260505221626 33 282 0.0 0.0 0.00 1.00 1.00 99 1011.8
20260505221122 33 243 0.0 0.0 0.00 1.00 1.00 99 1011.4
20260505220620 33 265 0.0 0.0 0.00 1.00 1.00 99 1011.6
20260505220118 34 273 0.0 0.9 0.07 1.00 1.00 99 1011.8
20260505215615 33 265 0.0 0.0 0.07 1.00 1.00 99 1011.6
20260505215113 33 247 0.0 0.0 0.05 0.99 0.99 99 1011.9
20260505214611 34 272 0.0 0.0 0.05 0.99 0.99 99 1011.7
20260505214108 33 275 0.0 0.0 0.07 0.98 0.98 99 1011.8
20260505213605 34 279 0.0 0.0 0.12 0.98 0.98 99 1011.7
20260505213102 34 273 0.0 0.9 0.12 0.97 0.97 99 1011.8
20260505212558 34 276 0.0 0.9 0.14 0.96 0.96 99 1011.4
20260505212056 34 277 0.0 0.0 0.12 0.95 0.95 99 1011.6
20260505211552 34 271 0.0 0.0 0.12 0.94 0.94 99 1011.8
20260505211049 33 267 0.0 0.0 0.12 0.93 0.93 99 1011.7
20260505210546 33 260 0.0 0.0 0.05 0.92 0.92 99 1011.8
20260505210043 33 272 0.0 0.0 0.00 0.91 0.91 99 1011.7
20260505205541 33 269 0.0 0.0 0.00 0.91 0.91 99 1011.9
20260505205038 33 306 0.0 0.0 0.07 0.91 0.91 99 1011.8
20260505204535 33 269 0.0 0.0 0.07 0.91 0.91 99 1011.9
20260505204032 33 285 0.0 0.0 0.00 0.90 0.90 99 1012.0
20260505203529 33 244 0.0 0.9 0.05 0.90 0.90 99 1011.9
20260505203026 33 266 0.0 0.0 0.05 0.90 0.90 99 1011.9
20260505202522 34 279 0.0 0.0 0.07 0.89 0.89 99 1012.0
20260505202018 34 266 0.0 0.0 0.07 0.89 0.89 99 1012.1
20260505201515 33 279 0.0 0.0 0.05 0.88 0.88 99 1012.4
20260505201013 34 274 0.0 0.0 0.12 0.88 0.88 99 1012.3
20260505200511 34 268 0.0 0.0 0.12 0.87 0.87 99 1012.4
20260505200007 34 257 0.0 0.0 0.05 0.86 0.86 99 1012.3
20260505195503 34 271 0.0 0.0 0.00 0.85 0.85 99 1012.5
20260505195001 33 288 0.0 0.0 0.07 0.85 0.85 99 1012.5
20260505194458 33 271 0.0 0.0 0.07 0.85 0.85 99 1012.7
20260505193958 33 266 0.0 0.0 0.00 0.84 0.84 99 1012.7
20260505193456 33 260 0.0 0.0 0.00 0.84 0.84 99 1012.5
20260505192953 33 251 0.0 0.0 0.00 0.84 0.84 99 1012.7
20260505192452 33 279 0.0 0.0 0.00 0.84 0.84 99 1012.6
20260505191949 34 54 0.0 0.9 0.00 0.84 0.84 99 1012.4
20260505191447 33 95 0.9 0.9 0.05 0.84 0.84 99 1012.5
20260505190944 33 252 0.0 0.9 0.05 0.84 0.84 99 1012.5